Weather History for KLXV - October, 2014

Change the Weather History Date:

Sunday, October 26, 2014

  Actual Average Record
Temperature  
Mean Temperature 44 °F -  
Max Temperature 55 °F 45 °F 66 °F (1977)
Min Temperature 32 °F 20 °F 1 °F (2012)
Degree Days  
Heating Degree Days 21 32  
Month to date heating degree days 642 724  
Since 1 July heating degree days 1791 2022  
Cooling Degree Days 0 0  
Month to date cooling degree days 0 0  
Year to date cooling degree days 0 0  
Moisture  
Dew Point 19 °F    
Average Humidity 40    
Maximum Humidity 61    
Minimum Humidity 18    
Precipitation  
Precipitation T in 0.03 in 0.60 in (2011)
Month to date precipitation 0.57 0.76  
Year to date precipitation 14.66 10.79  
Sea Level Pressure  
Sea Level Pressure 29.75 in    
Wind  
Wind Speed 9 mph (SW)    
Max Wind Speed 23 mph    
Max Gust Speed 35 mph    
Visibility 10 miles    
Events      
T = Trace of Precipitation, MM = Missing Value Source: NWS Daily Summary

Daily Weather History Graph

Daily Weather History Graph

Search for Another Location

Airport or City:

Trip Planner

Search our weather history database for the weather conditions in past years. The results will help you decide how hot, cold, wet, or windy it might be!

Date:

Astronomy

Oct. 26, 2014 Rise Set
Actual Time 7:26 AM MDT 6:11 PM MDT
Civil Twilight 6:59 AM MDT 6:38 PM MDT
Nautical Twilight 6:27 AM MDT 7:10 PM MDT
Astronomical Twilight 5:56 AM MDT 7:41 PM MDT
Moon 10:06 AM MDT (10/26) 8:25 PM MDT (10/26)
Length of Visible Light 11h 39m
Length of Day
10h 44m
Waxing Crescent, 9% of the Moon is Illuminated
Oct 26
Waxing Crescent
Oct 30
First Quarter
Nov 6
Full
Nov 14
Last Quarter
Nov 22
New

Hourly Weather History & Observations

Time (MDT) Temp. Windchill Dew Point Humidity Pressure Visibility Wind Dir Wind Speed Gust Speed Precip Events Conditions
12:53 AM 37.9 °F 32.1 °F 21.0 °F 51% 29.87 in 10.0 mi East 8.1 mph - N/A   Clear
1:53 AM 37.9 °F 34.4 °F 21.0 °F 51% 29.83 in 10.0 mi East 4.6 mph - N/A   Clear
2:53 AM 34.0 °F 26.6 °F 21.9 °F 61% 29.83 in 10.0 mi ENE 9.2 mph - N/A   Clear
3:53 AM 37.0 °F 31.0 °F 23.0 °F 57% 29.80 in 10.0 mi ENE 8.1 mph - N/A   Clear
4:53 AM 37.9 °F - 25.0 °F 60% 29.79 in 10.0 mi Calm Calm - N/A   Partly Cloudy
5:53 AM 44.1 °F 38.1 °F 24.1 °F 45% 29.77 in 10.0 mi West 11.5 mph 16.1 mph N/A   Clear
6:53 AM 37.9 °F 35.5 °F 24.1 °F 57% 29.86 in 10.0 mi NNE 3.5 mph - N/A   Clear
7:53 AM 37.0 °F 32.4 °F 24.1 °F 59% 29.88 in 10.0 mi ENE 5.8 mph - N/A   Clear
8:53 AM 44.1 °F - 26.1 °F 49% 29.83 in 10.0 mi Calm Calm - N/A   Clear
9:53 AM 50.0 °F - 21.0 °F 32% 29.82 in 10.0 mi SW 3.5 mph - N/A   Clear
10:53 AM 50.0 °F - 19.0 °F 29% 29.82 in 10.0 mi Variable 3.5 mph - N/A   Clear
11:53 AM 54.0 °F - 15.1 °F 22% 29.74 in 10.0 mi West 13.8 mph 18.4 mph N/A   Clear
12:53 PM 54.0 °F - 14.0 °F 21% 29.73 in 10.0 mi West 12.7 mph 20.7 mph N/A   Clear
1:53 PM 54.0 °F - 10.0 °F 17% 29.70 in 10.0 mi West 18.4 mph 35.7 mph N/A   Clear
2:53 PM 54.0 °F - 14.0 °F 21% 29.72 in 10.0 mi West 12.7 mph 21.9 mph N/A   Clear
3:53 PM 51.1 °F - 10.9 °F 20% 29.70 in 10.0 mi West 17.3 mph 28.8 mph N/A   Mostly Cloudy
4:53 PM 52.0 °F - 14.0 °F 22% 29.68 in 10.0 mi WSW 5.8 mph - N/A   Partly Cloudy
5:53 PM 48.9 °F - 12.9 °F 24% 29.64 in 10.0 mi South 12.7 mph - N/A   Clear
6:53 PM 46.0 °F 41.4 °F 12.0 °F 25% 29.71 in 10.0 mi SSW 9.2 mph - N/A   Clear
7:53 PM 43.0 °F - 14.0 °F 31% 29.74 in 10.0 mi Calm Calm - N/A   Partly Cloudy
8:53 PM 43.0 °F 37.7 °F 17.1 °F 35% 29.66 in 10.0 mi SSE 9.2 mph - N/A   Overcast
9:53 PM 44.1 °F 39.0 °F 19.9 °F 38% 29.61 in 10.0 mi South 9.2 mph - N/A   Overcast
10:53 PM 44.1 °F 40.1 °F 21.0 °F 40% 29.60 in 10.0 mi SW 6.9 mph - 0.00 in   Overcast
11:53 PM 43.0 °F 34.2 °F 21.0 °F 42% 29.55 in 10.0 mi South 20.7 mph 31.1 mph N/A   Overcast